Year,Month,Day,Hour,Minute,Value (Times are PST for temperature in C)
2013,08,21,00,00,13.70
2013,08,21,00,01,13.70
2013,08,21,00,02,13.70
2013,08,21,00,03,13.60
2013,08,21,00,04,13.60
2013,08,21,00,05,13.60
2013,08,21,00,06,13.60
2013,08,21,00,07,13.60
2013,08,21,00,08,13.60
2013,08,21,00,09,13.60
2013,08,21,00,10,13.60
2013,08,21,00,11,13.60
2013,08,21,00,12,13.60
2013,08,21,00,13,13.60
2013,08,21,00,14,13.60
2013,08,21,00,15,13.60
2013,08,21,00,16,13.50
2013,08,21,00,17,13.40
2013,08,21,00,18,13.40
2013,08,21,00,19,13.30
2013,08,21,00,20,13.30
2013,08,21,00,21,13.30
2013,08,21,00,22,13.30
2013,08,21,00,23,13.30
2013,08,21,00,24,13.30
2013,08,21,00,25,13.20
2013,08,21,00,26,13.20
2013,08,21,00,27,13.20
2013,08,21,00,28,13.20
2013,08,21,00,29,13.20
2013,08,21,00,30,13.10
2013,08,21,00,31,13.10
2013,08,21,00,32,13.10
2013,08,21,00,33,13.10
2013,08,21,00,34,13.10
2013,08,21,00,35,13.10
2013,08,21,00,36,13.10
2013,08,21,00,37,13.10
2013,08,21,00,38,13.10
2013,08,21,00,39,13.10
2013,08,21,00,40,13.10
2013,08,21,00,41,13.10
2013,08,21,00,42,13.10
2013,08,21,00,43,13.10
2013,08,21,00,44,13.10
2013,08,21,00,45,13.10
2013,08,21,00,46,13.00
2013,08,21,00,47,13.00
2013,08,21,00,48,12.90
2013,08,21,00,49,12.90
2013,08,21,00,50,12.90
2013,08,21,00,51,12.90
2013,08,21,00,52,12.90
2013,08,21,00,53,12.80
2013,08,21,00,54,12.80
2013,08,21,00,55,12.80
2013,08,21,00,56,12.70
2013,08,21,00,57,12.70
2013,08,21,00,58,12.70
2013,08,21,00,59,12.70
2013,08,21,01,00,12.70
2013,08,21,01,01,12.60
2013,08,21,01,02,12.60
2013,08,21,01,03,12.60
2013,08,21,01,04,12.60
2013,08,21,01,05,12.60
2013,08,21,01,06,12.60
2013,08,21,01,07,12.60
2013,08,21,01,08,12.60
2013,08,21,01,09,12.50
2013,08,21,01,10,12.50
2013,08,21,01,11,12.60
2013,08,21,01,12,12.60
2013,08,21,01,13,12.60
2013,08,21,01,14,12.50
2013,08,21,01,15,12.50
2013,08,21,01,16,12.50
2013,08,21,01,17,12.40
2013,08,21,01,18,12.40
2013,08,21,01,19,12.40
2013,08,21,01,20,12.40
2013,08,21,01,21,12.40
2013,08,21,01,22,12.40
2013,08,21,01,23,12.40
2013,08,21,01,24,12.40
2013,08,21,01,25,12.40
2013,08,21,01,26,12.40
2013,08,21,01,27,12.30
2013,08,21,01,28,12.30
2013,08,21,01,29,12.30
2013,08,21,01,30,12.30
2013,08,21,01,31,12.30
2013,08,21,01,32,12.30
2013,08,21,01,33,12.20
2013,08,21,01,34,12.20
2013,08,21,01,35,12.20
2013,08,21,01,36,12.20
2013,08,21,01,37,12.20
2013,08,21,01,38,12.20
2013,08,21,01,39,12.20
2013,08,21,01,40,12.20
2013,08,21,01,41,12.20
2013,08,21,01,42,12.20
2013,08,21,01,43,12.10
2013,08,21,01,44,12.10
2013,08,21,01,45,12.10
2013,08,21,01,46,12.00
2013,08,21,01,47,12.00
2013,08,21,01,48,11.90
2013,08,21,01,49,11.90
2013,08,21,01,50,11.90
2013,08,21,01,51,11.90
2013,08,21,01,52,11.90
2013,08,21,01,53,11.90
2013,08,21,01,54,11.90
2013,08,21,01,55,12.00
2013,08,21,01,56,12.00
2013,08,21,01,57,12.00
2013,08,21,01,58,12.00
2013,08,21,01,59,12.10
2013,08,21,02,00,12.10
2013,08,21,02,01,12.10
2013,08,21,02,02,12.10
2013,08,21,02,03,12.10
2013,08,21,02,04,12.10
2013,08,21,02,05,12.10
2013,08,21,02,06,12.00
2013,08,21,02,07,12.00
2013,08,21,02,08,12.00
2013,08,21,02,09,12.00
2013,08,21,02,10,11.90
2013,08,21,02,11,11.90
2013,08,21,02,12,11.90
2013,08,21,02,13,11.90
2013,08,21,02,14,11.90
2013,08,21,02,15,11.90
2013,08,21,02,16,11.90
2013,08,21,02,17,11.90
2013,08,21,02,18,11.90
2013,08,21,02,19,11.90
2013,08,21,02,20,11.90
2013,08,21,02,21,11.90
2013,08,21,02,22,11.90
2013,08,21,02,23,11.90
2013,08,21,02,24,11.90
2013,08,21,02,25,11.90
2013,08,21,02,26,11.90
2013,08,21,02,27,11.90
2013,08,21,02,28,11.90
2013,08,21,02,29,11.90
2013,08,21,02,30,11.90
2013,08,21,02,31,11.80
2013,08,21,02,32,11.80
2013,08,21,02,33,11.80
2013,08,21,02,34,11.80
2013,08,21,02,35,11.70
2013,08,21,02,36,11.70
2013,08,21,02,37,11.70
2013,08,21,02,38,11.70
2013,08,21,02,39,11.70
2013,08,21,02,40,11.70
2013,08,21,02,41,11.70
2013,08,21,02,42,11.70
2013,08,21,02,43,11.60
2013,08,21,02,44,11.60
2013,08,21,02,45,11.60
2013,08,21,02,46,11.60
2013,08,21,02,47,11.50
2013,08,21,02,48,11.50
2013,08,21,02,49,11.50
2013,08,21,02,50,11.50
2013,08,21,02,51,11.50
2013,08,21,02,52,11.50
2013,08,21,02,53,11.50
2013,08,21,02,54,11.60
2013,08,21,02,55,11.60
2013,08,21,02,56,11.60
2013,08,21,02,57,11.60
2013,08,21,02,58,11.60
2013,08,21,02,59,11.60
2013,08,21,03,00,11.60
2013,08,21,03,01,11.60
2013,08,21,03,02,11.60
2013,08,21,03,03,11.60
2013,08,21,03,04,11.60
2013,08,21,03,05,11.60
2013,08,21,03,06,11.60
2013,08,21,03,07,11.60
2013,08,21,03,08,11.50
2013,08,21,03,09,11.50
2013,08,21,03,10,11.50
2013,08,21,03,11,11.50
2013,08,21,03,12,11.50
2013,08,21,03,13,11.50
2013,08,21,03,14,11.50
2013,08,21,03,15,11.60
2013,08,21,03,16,11.60
2013,08,21,03,17,11.50
2013,08,21,03,18,11.50
2013,08,21,03,19,11.50
2013,08,21,03,20,11.40
2013,08,21,03,21,11.40
2013,08,21,03,22,11.40
2013,08,21,03,23,11.40
2013,08,21,03,24,11.40
2013,08,21,03,25,11.40
2013,08,21,03,26,11.40
2013,08,21,03,27,11.30
2013,08,21,03,28,11.30
2013,08,21,03,29,11.30
2013,08,21,03,30,11.30
2013,08,21,03,31,11.20
2013,08,21,03,32,11.20
2013,08,21,03,33,11.20
2013,08,21,03,34,11.20
2013,08,21,03,35,11.20
2013,08,21,03,36,11.20
2013,08,21,03,37,11.20
2013,08,21,03,38,11.20
2013,08,21,03,39,11.20
2013,08,21,03,40,11.20
2013,08,21,03,41,11.20
2013,08,21,03,42,11.20
2013,08,21,03,43,11.20
2013,08,21,03,44,11.20
2013,08,21,03,45,11.20
2013,08,21,03,46,11.20
2013,08,21,03,47,11.20
2013,08,21,03,48,11.20
2013,08,21,03,49,11.20
2013,08,21,03,50,11.20
2013,08,21,03,51,11.20
2013,08,21,03,52,11.20
2013,08,21,03,53,11.10
2013,08,21,03,54,11.10
2013,08,21,03,55,11.10
2013,08,21,03,56,11.10
2013,08,21,03,57,11.10
2013,08,21,03,58,11.10
2013,08,21,03,59,11.20
2013,08,21,04,00,11.20
2013,08,21,04,01,11.20
2013,08,21,04,02,11.20
2013,08,21,04,03,11.20
2013,08,21,04,04,11.20
2013,08,21,04,05,11.20
2013,08,21,04,06,11.20
2013,08,21,04,07,11.20
2013,08,21,04,08,11.20
2013,08,21,04,09,11.10
2013,08,21,04,10,11.10
2013,08,21,04,11,11.10
2013,08,21,04,12,11.10
2013,08,21,04,13,11.10
2013,08,21,04,14,11.10
2013,08,21,04,15,11.10
2013,08,21,04,16,11.10
2013,08,21,04,17,11.10
2013,08,21,04,18,11.10
2013,08,21,04,19,11.10
2013,08,21,04,20,11.10
2013,08,21,04,21,11.10
2013,08,21,04,22,11.10
2013,08,21,04,23,11.10
2013,08,21,04,24,11.10
2013,08,21,04,25,11.10
2013,08,21,04,26,11.20
2013,08,21,04,27,11.20
2013,08,21,04,28,11.20
2013,08,21,04,29,11.20
2013,08,21,04,30,11.20
2013,08,21,04,31,11.20
2013,08,21,04,32,11.30
2013,08,21,04,33,11.30
2013,08,21,04,34,11.30
2013,08,21,04,35,11.30
2013,08,21,04,36,11.40
2013,08,21,04,37,11.40
2013,08,21,04,38,11.30
2013,08,21,04,39,11.30
2013,08,21,04,40,11.30
2013,08,21,04,41,11.30
2013,08,21,04,42,11.30
2013,08,21,04,43,11.20
2013,08,21,04,44,11.20
2013,08,21,04,45,11.20
2013,08,21,04,46,11.20
2013,08,21,04,47,11.10
2013,08,21,04,48,11.10
2013,08,21,04,49,11.10
2013,08,21,04,50,11.10
2013,08,21,04,51,11.10
2013,08,21,04,52,11.10
2013,08,21,04,53,11.10
2013,08,21,04,54,11.10
2013,08,21,04,55,11.10
2013,08,21,04,56,11.10
2013,08,21,04,57,11.00
2013,08,21,04,58,11.00
2013,08,21,04,59,10.90
2013,08,21,05,00,10.90
2013,08,21,05,01,10.80
2013,08,21,05,02,10.80
2013,08,21,05,03,10.80
2013,08,21,05,04,10.80
2013,08,21,05,05,10.80
2013,08,21,05,06,10.80
2013,08,21,05,07,10.80
2013,08,21,05,08,10.80
2013,08,21,05,09,10.80
2013,08,21,05,10,10.80
2013,08,21,05,11,10.80
2013,08,21,05,12,10.80
2013,08,21,05,13,10.80
2013,08,21,05,14,10.80
2013,08,21,05,15,10.80
2013,08,21,05,16,10.80
2013,08,21,05,17,10.80
2013,08,21,05,18,10.80
2013,08,21,05,19,10.70
2013,08,21,05,20,10.70
2013,08,21,05,21,10.70
2013,08,21,05,22,10.70
2013,08,21,05,23,10.70
2013,08,21,05,24,10.60
2013,08,21,05,25,10.60
2013,08,21,05,26,10.60
2013,08,21,05,27,10.60
2013,08,21,05,28,10.50
2013,08,21,05,29,10.50
2013,08,21,05,30,10.50
2013,08,21,05,31,10.40
2013,08,21,05,32,10.40
2013,08,21,05,33,10.40
2013,08,21,05,34,10.40
2013,08,21,05,35,10.40
2013,08,21,05,36,10.40
2013,08,21,05,37,10.40
2013,08,21,05,38,10.50
2013,08,21,05,39,10.50
2013,08,21,05,40,10.50
2013,08,21,05,41,10.50
2013,08,21,05,42,10.50
2013,08,21,05,43,10.50
2013,08,21,05,44,10.50
2013,08,21,05,45,10.50
2013,08,21,05,46,10.50
2013,08,21,05,47,10.50
2013,08,21,05,48,10.40
2013,08,21,05,49,10.40
2013,08,21,05,50,10.40
2013,08,21,05,51,10.40
2013,08,21,05,52,10.40
2013,08,21,05,53,10.40
2013,08,21,05,54,10.40
2013,08,21,05,55,10.30
2013,08,21,05,56,10.30
2013,08,21,05,57,10.30
2013,08,21,05,58,10.30
2013,08,21,05,59,10.30
2013,08,21,06,00,10.30
2013,08,21,06,01,10.20
2013,08,21,06,02,10.20
2013,08,21,06,03,10.20
2013,08,21,06,04,10.20
2013,08,21,06,05,10.20
2013,08,21,06,06,10.20
2013,08,21,06,07,10.20
2013,08,21,06,08,10.20
2013,08,21,06,09,10.10
2013,08,21,06,10,10.10
2013,08,21,06,11,10.10
2013,08,21,06,12,10.10
2013,08,21,06,13,10.10
2013,08,21,06,14,10.10
2013,08,21,06,15,10.10
2013,08,21,06,16,10.10
2013,08,21,06,17,10.20
2013,08,21,06,18,10.20
2013,08,21,06,19,10.10
2013,08,21,06,20,10.10
2013,08,21,06,21,10.10
2013,08,21,06,22,10.10
2013,08,21,06,23,10.10
2013,08,21,06,24,10.10
2013,08,21,06,25,10.00
2013,08,21,06,26,10.00
2013,08,21,06,27,10.00
2013,08,21,06,28,10.00
2013,08,21,06,29,10.00
2013,08,21,06,30,10.10
2013,08,21,06,31,10.10
2013,08,21,06,32,10.10
2013,08,21,06,33,10.10
2013,08,21,06,34,10.10
2013,08,21,06,35,10.10
2013,08,21,06,36,10.10
2013,08,21,06,37,10.10
2013,08,21,06,38,10.10
2013,08,21,06,39,10.10
2013,08,21,06,40,10.10
2013,08,21,06,41,10.10
2013,08,21,06,42,10.10
2013,08,21,06,43,10.10
2013,08,21,06,44,10.10
2013,08,21,06,45,10.10
2013,08,21,06,46,10.10
2013,08,21,06,47,10.10
2013,08,21,06,48,10.10
2013,08,21,06,49,10.10
2013,08,21,06,50,10.10
2013,08,21,06,51,10.20
2013,08,21,06,52,10.20
2013,08,21,06,53,10.20
2013,08,21,06,54,10.20
2013,08,21,06,55,10.30
2013,08,21,06,56,10.30
2013,08,21,06,57,10.30
2013,08,21,06,58,10.30
2013,08,21,06,59,10.30
2013,08,21,07,00,10.40
2013,08,21,07,01,10.40
2013,08,21,07,02,10.40
2013,08,21,07,03,10.50
2013,08,21,07,04,10.60
2013,08,21,07,05,10.60
2013,08,21,07,06,10.60
2013,08,21,07,07,10.70
2013,08,21,07,08,10.70
2013,08,21,07,09,10.80
2013,08,21,07,10,10.90
2013,08,21,07,11,11.00
2013,08,21,07,12,11.00
2013,08,21,07,13,11.10
2013,08,21,07,14,11.20
2013,08,21,07,15,11.20
2013,08,21,07,16,11.20
2013,08,21,07,17,11.30
2013,08,21,07,18,11.30
2013,08,21,07,19,11.30
2013,08,21,07,20,11.40
2013,08,21,07,21,11.40
2013,08,21,07,22,11.50
2013,08,21,07,23,11.50
2013,08,21,07,24,11.60
2013,08,21,07,25,11.60
2013,08,21,07,26,11.60
2013,08,21,07,27,11.60
2013,08,21,07,28,11.70
2013,08,21,07,29,11.70
2013,08,21,07,30,11.80
2013,08,21,07,31,11.90
2013,08,21,07,32,11.90
2013,08,21,07,33,12.00
2013,08,21,07,34,12.10
2013,08,21,07,35,12.20
2013,08,21,07,36,12.20
2013,08,21,07,37,12.30
2013,08,21,07,38,12.40
2013,08,21,07,39,12.50
2013,08,21,07,40,12.60
2013,08,21,07,41,12.70
2013,08,21,07,42,12.80
2013,08,21,07,43,12.90
2013,08,21,07,44,13.00
2013,08,21,07,45,13.20
2013,08,21,07,46,13.30
2013,08,21,07,47,13.40
2013,08,21,07,48,13.50
2013,08,21,07,49,13.70
2013,08,21,07,50,13.80
2013,08,21,07,51,13.90
2013,08,21,07,52,14.00
2013,08,21,07,53,14.10
2013,08,21,07,54,14.20
2013,08,21,07,55,14.30
2013,08,21,07,56,14.40
2013,08,21,07,57,14.50
2013,08,21,07,58,14.60
2013,08,21,07,59,14.60
2013,08,21,08,00,14.70
2013,08,21,08,01,14.70
2013,08,21,08,02,14.80
2013,08,21,08,03,14.90
2013,08,21,08,04,15.00
2013,08,21,08,05,15.00
2013,08,21,08,06,15.00
2013,08,21,08,07,15.00
2013,08,21,08,08,15.00
2013,08,21,08,09,15.10
2013,08,21,08,10,15.20
2013,08,21,08,11,15.30
2013,08,21,08,12,15.30
2013,08,21,08,13,15.40
2013,08,21,08,14,15.50
2013,08,21,08,15,15.60
2013,08,21,08,16,15.60
2013,08,21,08,17,15.70
2013,08,21,08,18,15.80
2013,08,21,08,19,15.80
2013,08,21,08,20,15.90
2013,08,21,08,21,16.00
2013,08,21,08,22,16.10
2013,08,21,08,23,16.10
2013,08,21,08,24,16.20
2013,08,21,08,25,16.30
2013,08,21,08,26,16.40
2013,08,21,08,27,16.40
2013,08,21,08,28,16.50
2013,08,21,08,29,16.60
2013,08,21,08,30,16.60
2013,08,21,08,31,16.70
2013,08,21,08,32,16.80
2013,08,21,08,33,16.80
2013,08,21,08,34,16.90
2013,08,21,08,35,17.00
2013,08,21,08,36,17.10
2013,08,21,08,37,17.20
2013,08,21,08,38,17.30
2013,08,21,08,39,17.30
2013,08,21,08,40,17.40
2013,08,21,08,41,17.50
2013,08,21,08,42,17.50
2013,08,21,08,43,17.60
2013,08,21,08,44,17.60
2013,08,21,08,45,17.70
2013,08,21,08,46,17.70
2013,08,21,08,47,17.70
2013,08,21,08,48,17.80
2013,08,21,08,49,17.80
2013,08,21,08,50,17.80
2013,08,21,08,51,17.80
2013,08,21,08,52,17.90
2013,08,21,08,53,17.90
2013,08,21,08,54,17.90
2013,08,21,08,55,17.90
2013,08,21,08,56,18.00
2013,08,21,08,57,18.00
2013,08,21,08,58,18.00
2013,08,21,08,59,18.10
2013,08,21,09,00,18.10
2013,08,21,09,01,18.20
2013,08,21,09,02,18.20
2013,08,21,09,03,18.20
2013,08,21,09,04,18.30
2013,08,21,09,05,18.30
2013,08,21,09,06,18.40
2013,08,21,09,07,18.40
2013,08,21,09,08,18.50
2013,08,21,09,09,18.50
2013,08,21,09,10,18.60
2013,08,21,09,11,18.60
2013,08,21,09,12,18.60
2013,08,21,09,13,18.60
2013,08,21,09,14,18.60
2013,08,21,09,15,18.60
2013,08,21,09,16,18.60
2013,08,21,09,17,18.60
2013,08,21,09,18,18.50
2013,08,21,09,19,18.60
2013,08,21,09,20,18.60
2013,08,21,09,21,18.60
2013,08,21,09,22,18.60
2013,08,21,09,23,18.60
2013,08,21,09,24,18.60
2013,08,21,09,25,18.70
2013,08,21,09,26,18.70
2013,08,21,09,27,18.70
2013,08,21,09,28,18.70
2013,08,21,09,29,18.70
2013,08,21,09,30,18.80
2013,08,21,09,31,18.80
2013,08,21,09,32,18.80
2013,08,21,09,33,18.80
2013,08,21,09,34,18.80
2013,08,21,09,35,18.80
2013,08,21,09,36,18.90
2013,08,21,09,37,18.90
2013,08,21,09,38,19.00
2013,08,21,09,39,19.10
2013,08,21,09,40,19.10
2013,08,21,09,41,19.10
2013,08,21,09,42,19.20
2013,08,21,09,43,19.10
2013,08,21,09,44,19.10
2013,08,21,09,45,19.20
2013,08,21,09,46,19.20
2013,08,21,09,47,19.20
2013,08,21,09,48,19.20
2013,08,21,09,49,19.20
2013,08,21,09,50,19.20
2013,08,21,09,51,19.30
2013,08,21,09,52,19.40
2013,08,21,09,53,19.40
2013,08,21,09,54,19.40
2013,08,21,09,55,19.40
2013,08,21,09,56,19.30
2013,08,21,09,57,19.30
2013,08,21,09,58,19.30
2013,08,21,09,59,19.40
2013,08,21,10,00,19.50
2013,08,21,10,01,19.50
2013,08,21,10,02,19.60
2013,08,21,10,03,19.60
2013,08,21,10,04,19.60
2013,08,21,10,05,19.60
2013,08,21,10,06,19.50
2013,08,21,10,07,19.40
2013,08,21,10,08,19.50
2013,08,21,10,09,19.50
2013,08,21,10,10,19.50
2013,08,21,10,11,19.50
2013,08,21,10,12,19.50
2013,08,21,10,13,19.60
2013,08,21,10,14,19.60
2013,08,21,10,15,19.60
2013,08,21,10,16,19.60
2013,08,21,10,17,19.60
2013,08,21,10,18,19.50
2013,08,21,10,19,19.50
2013,08,21,10,20,19.50
2013,08,21,10,21,19.50
2013,08,21,10,22,19.50
2013,08,21,10,23,19.60
2013,08,21,10,24,19.60
2013,08,21,10,25,19.60
2013,08,21,10,26,19.60
2013,08,21,10,27,19.60
2013,08,21,10,28,19.60
2013,08,21,10,29,19.70
2013,08,21,10,30,19.70
2013,08,21,10,31,19.70
2013,08,21,10,32,19.70
2013,08,21,10,33,19.80
2013,08,21,10,34,19.90
2013,08,21,10,35,19.90
2013,08,21,10,36,19.90
2013,08,21,10,37,19.90
2013,08,21,10,38,19.90
2013,08,21,10,39,19.90
2013,08,21,10,40,20.00
2013,08,21,10,41,20.10
2013,08,21,10,42,20.10
2013,08,21,10,43,20.10
2013,08,21,10,44,20.10
2013,08,21,10,45,20.20
2013,08,21,10,46,20.30
2013,08,21,10,47,20.40
2013,08,21,10,48,20.30
2013,08,21,10,49,20.30
2013,08,21,10,50,20.30
2013,08,21,10,51,20.30
2013,08,21,10,52,20.30
2013,08,21,10,53,20.40
2013,08,21,10,54,20.40
2013,08,21,10,55,20.40
2013,08,21,10,56,20.50
2013,08,21,10,57,20.50
2013,08,21,10,58,20.60
2013,08,21,10,59,20.60
2013,08,21,11,00,20.60
2013,08,21,11,01,20.60
2013,08,21,11,02,20.60
2013,08,21,11,03,20.70
2013,08,21,11,04,20.80
2013,08,21,11,05,20.80
2013,08,21,11,06,20.80
2013,08,21,11,07,20.80
2013,08,21,11,08,20.80
2013,08,21,11,09,20.80
2013,08,21,11,10,20.80
2013,08,21,11,11,20.80
2013,08,21,11,12,20.80
2013,08,21,11,13,20.90
2013,08,21,11,14,20.90
2013,08,21,11,15,20.80
2013,08,21,11,16,20.80
2013,08,21,11,17,20.80
2013,08,21,11,18,20.80
2013,08,21,11,19,20.80
2013,08,21,11,20,20.80
2013,08,21,11,21,20.80
2013,08,21,11,22,20.90
2013,08,21,11,23,20.90
2013,08,21,11,24,20.90
2013,08,21,11,25,20.90
2013,08,21,11,26,20.90
2013,08,21,11,27,20.90
2013,08,21,11,28,20.90
2013,08,21,11,29,21.00
2013,08,21,11,30,21.10
2013,08,21,11,31,21.20
2013,08,21,11,32,21.20
2013,08,21,11,33,21.30
2013,08,21,11,34,21.30
2013,08,21,11,35,21.30
2013,08,21,11,36,21.30
2013,08,21,11,37,21.30
2013,08,21,11,38,21.30
2013,08,21,11,39,21.30
2013,08,21,11,40,21.30
2013,08,21,11,41,21.20
2013,08,21,11,42,21.30
2013,08,21,11,43,21.30
2013,08,21,11,44,21.30
2013,08,21,11,45,21.30
2013,08,21,11,46,21.30
2013,08,21,11,47,21.30
2013,08,21,11,48,21.30
2013,08,21,11,49,21.30
2013,08,21,11,50,21.30
2013,08,21,11,51,21.40
2013,08,21,11,52,21.50
2013,08,21,11,53,21.70
2013,08,21,11,54,21.80
2013,08,21,11,55,21.80
2013,08,21,11,56,21.80
2013,08,21,11,57,21.80
2013,08,21,11,58,21.80
2013,08,21,11,59,21.80
2013,08,21,12,00,21.80
2013,08,21,12,01,21.80
2013,08,21,12,02,21.80
2013,08,21,12,03,21.80
2013,08,21,12,04,21.90
2013,08,21,12,05,21.90
2013,08,21,12,06,21.90
2013,08,21,12,07,22.00
2013,08,21,12,08,22.10
2013,08,21,12,09,22.20
2013,08,21,12,10,22.20
2013,08,21,12,11,22.30
2013,08,21,12,12,22.40
2013,08,21,12,13,22.40
2013,08,21,12,14,22.30
2013,08,21,12,15,22.40
2013,08,21,12,16,22.30
2013,08,21,12,17,22.30
2013,08,21,12,18,22.30
2013,08,21,12,19,22.30
2013,08,21,12,20,22.40
2013,08,21,12,21,22.50
2013,08,21,12,22,22.50
2013,08,21,12,23,22.60
2013,08,21,12,24,22.60
2013,08,21,12,25,22.60
2013,08,21,12,26,22.60
2013,08,21,12,27,22.70
2013,08,21,12,28,22.80
2013,08,21,12,29,22.80
2013,08,21,12,30,22.80
2013,08,21,12,31,22.70
2013,08,21,12,32,22.70
2013,08,21,12,33,22.60
2013,08,21,12,34,22.60
2013,08,21,12,35,22.60
2013,08,21,12,36,22.60
2013,08,21,12,37,22.70
2013,08,21,12,38,22.70
2013,08,21,12,39,22.70
2013,08,21,12,40,22.60
2013,08,21,12,41,22.60
2013,08,21,12,42,22.60
2013,08,21,12,43,22.60
2013,08,21,12,44,22.60
2013,08,21,12,45,22.60
2013,08,21,12,46,22.60
2013,08,21,12,47,22.60
2013,08,21,12,48,22.60
2013,08,21,12,49,22.60
2013,08,21,12,50,22.60
2013,08,21,12,51,22.50
2013,08,21,12,52,22.50
2013,08,21,12,53,22.50
2013,08,21,12,54,22.60
2013,08,21,12,55,22.60
2013,08,21,12,56,22.60
2013,08,21,12,57,22.70
2013,08,21,12,58,22.70
2013,08,21,12,59,22.80
2013,08,21,13,00,22.80
2013,08,21,13,01,22.80
2013,08,21,13,02,22.80
2013,08,21,13,03,22.80
2013,08,21,13,04,22.80
2013,08,21,13,05,22.80
2013,08,21,13,06,22.80
2013,08,21,13,07,22.90
2013,08,21,13,08,22.90
2013,08,21,13,09,22.90
2013,08,21,13,10,22.90
2013,08,21,13,11,22.90
2013,08,21,13,12,22.90
2013,08,21,13,13,23.00
2013,08,21,13,14,23.10
2013,08,21,13,15,23.10
2013,08,21,13,16,23.10
2013,08,21,13,17,23.10
2013,08,21,13,18,23.00
2013,08,21,13,19,23.00
2013,08,21,13,20,23.00
2013,08,21,13,21,23.10
2013,08,21,13,22,23.10
2013,08,21,13,23,23.10
2013,08,21,13,24,23.20
2013,08,21,13,25,23.20
2013,08,21,13,26,23.20
2013,08,21,13,27,23.20
2013,08,21,13,28,23.20
2013,08,21,13,29,23.20
2013,08,21,13,30,23.20
2013,08,21,13,31,23.30
2013,08,21,13,32,23.40
2013,08,21,13,33,23.40
2013,08,21,13,34,23.40
2013,08,21,13,35,23.30
2013,08,21,13,36,23.30
2013,08,21,13,37,23.40
2013,08,21,13,38,23.50
2013,08,21,13,39,23.50
2013,08,21,13,40,23.50
2013,08,21,13,41,23.50
2013,08,21,13,42,23.50
2013,08,21,13,43,23.40
2013,08,21,13,44,23.50
2013,08,21,13,45,23.60
2013,08,21,13,46,23.60
2013,08,21,13,47,23.70
2013,08,21,13,48,23.70
2013,08,21,13,49,23.70
2013,08,21,13,50,23.70
2013,08,21,13,51,23.70
2013,08,21,13,52,23.60
2013,08,21,13,53,23.60
2013,08,21,13,54,23.70
2013,08,21,13,55,23.70
2013,08,21,13,56,23.80
2013,08,21,13,57,23.90
2013,08,21,13,58,24.00
2013,08,21,13,59,23.90
2013,08,21,14,00,23.90
2013,08,21,14,01,23.90
2013,08,21,14,02,23.90
2013,08,21,14,03,23.90
2013,08,21,14,04,24.00
2013,08,21,14,05,24.00
2013,08,21,14,06,24.10
2013,08,21,14,07,24.10
2013,08,21,14,08,24.10
2013,08,21,14,09,24.10
2013,08,21,14,10,24.20
2013,08,21,14,11,24.20
2013,08,21,14,12,24.30
2013,08,21,14,13,24.30
2013,08,21,14,14,24.30
2013,08,21,14,15,24.40
2013,08,21,14,16,24.40
2013,08,21,14,17,24.50
2013,08,21,14,18,24.50
2013,08,21,14,19,24.50
2013,08,21,14,20,24.60
2013,08,21,14,21,24.70
2013,08,21,14,22,24.70
2013,08,21,14,23,24.80
2013,08,21,14,24,24.90
2013,08,21,14,25,24.90
2013,08,21,14,26,24.90
2013,08,21,14,27,24.90
2013,08,21,14,28,24.80
2013,08,21,14,29,24.80
2013,08,21,14,30,24.80
2013,08,21,14,31,24.70
2013,08,21,14,32,24.80
2013,08,21,14,33,24.80
2013,08,21,14,34,24.90
2013,08,21,14,35,24.90
2013,08,21,14,36,24.90
2013,08,21,14,37,24.90
2013,08,21,14,38,24.80
2013,08,21,14,39,24.80
2013,08,21,14,40,24.80
2013,08,21,14,41,24.90
2013,08,21,14,42,24.90
2013,08,21,14,43,24.90
2013,08,21,14,44,24.80
2013,08,21,14,45,24.70
2013,08,21,14,46,24.70
2013,08,21,14,47,24.70
2013,08,21,14,48,24.70
2013,08,21,14,49,24.80
2013,08,21,14,50,24.80
2013,08,21,14,51,24.80
2013,08,21,14,52,24.90
2013,08,21,14,53,25.00
2013,08,21,14,54,25.00
2013,08,21,14,55,25.10
2013,08,21,14,56,25.10
2013,08,21,14,57,25.20
2013,08,21,14,58,25.40
2013,08,21,14,59,25.40
2013,08,21,15,00,25.50
2013,08,21,15,01,25.60
2013,08,21,15,02,25.60
2013,08,21,15,03,25.60
2013,08,21,15,04,25.60
2013,08,21,15,05,25.60
2013,08,21,15,06,25.60
2013,08,21,15,07,25.70
2013,08,21,15,08,25.70
2013,08,21,15,09,25.70
2013,08,21,15,10,25.70
2013,08,21,15,11,25.70
2013,08,21,15,12,25.70
2013,08,21,15,13,25.70
2013,08,21,15,14,25.70
2013,08,21,15,15,25.80
2013,08,21,15,16,25.80
2013,08,21,15,17,25.80
2013,08,21,15,18,25.80
2013,08,21,15,19,25.90
2013,08,21,15,20,25.80
2013,08,21,15,21,25.80
2013,08,21,15,22,25.80
2013,08,21,15,23,25.80
2013,08,21,15,24,25.90
2013,08,21,15,25,25.90
2013,08,21,15,26,25.90
2013,08,21,15,27,25.90
2013,08,21,15,28,26.00
2013,08,21,15,29,26.10
2013,08,21,15,30,26.20
2013,08,21,15,31,26.10
2013,08,21,15,32,26.10
2013,08,21,15,33,26.20
2013,08,21,15,34,26.20
2013,08,21,15,35,26.20
2013,08,21,15,36,26.30
2013,08,21,15,37,26.20
2013,08,21,15,38,26.20
2013,08,21,15,39,26.20
2013,08,21,15,40,26.10
2013,08,21,15,41,26.10
2013,08,21,15,42,26.10
2013,08,21,15,43,26.10
2013,08,21,15,44,26.00
2013,08,21,15,45,26.00
2013,08,21,15,46,26.00
2013,08,21,15,47,26.00
2013,08,21,15,48,26.00
2013,08,21,15,49,26.10
2013,08,21,15,50,26.00
2013,08,21,15,51,26.00
2013,08,21,15,52,25.90
2013,08,21,15,53,25.90
2013,08,21,15,54,25.90
2013,08,21,15,55,25.90
2013,08,21,15,56,25.90
2013,08,21,15,57,25.70
2013,08,21,15,58,25.50
2013,08,21,15,59,25.30
2013,08,21,16,00,25.20
2013,08,21,16,01,25.00
2013,08,21,16,02,24.80
2013,08,21,16,03,24.60
2013,08,21,16,04,24.40
2013,08,21,16,05,24.30
2013,08,21,16,06,24.20
2013,08,21,16,07,24.20
2013,08,21,16,08,24.20
2013,08,21,16,09,24.20
2013,08,21,16,10,24.20
2013,08,21,16,11,24.20
2013,08,21,16,12,24.20
2013,08,21,16,13,24.20
2013,08,21,16,14,24.20
2013,08,21,16,15,24.20
2013,08,21,16,16,24.20
2013,08,21,16,17,24.20
2013,08,21,16,18,24.20
2013,08,21,16,19,24.10
2013,08,21,16,20,24.10
2013,08,21,16,21,24.00
2013,08,21,16,22,24.00
2013,08,21,16,23,23.90
2013,08,21,16,24,23.90
2013,08,21,16,25,23.90
2013,08,21,16,26,23.90
2013,08,21,16,27,23.80
2013,08,21,16,28,23.80
2013,08,21,16,29,23.80
2013,08,21,16,30,23.70
2013,08,21,16,31,23.70
2013,08,21,16,32,23.70
2013,08,21,16,33,23.70
2013,08,21,16,34,23.70
2013,08,21,16,35,23.70
2013,08,21,16,36,23.70
2013,08,21,16,37,23.60
2013,08,21,16,38,23.60
2013,08,21,16,39,23.60
2013,08,21,16,40,23.50
2013,08,21,16,41,23.50
2013,08,21,16,42,23.50
2013,08,21,16,43,23.50
2013,08,21,16,44,23.50
2013,08,21,16,45,23.40
2013,08,21,16,46,23.40
2013,08,21,16,47,23.50
2013,08,21,16,48,23.50
2013,08,21,16,49,23.50
2013,08,21,16,50,23.60
2013,08,21,16,51,23.50
2013,08,21,16,52,23.50
2013,08,21,16,53,23.50
2013,08,21,16,54,23.40
2013,08,21,16,55,23.40
2013,08,21,16,56,23.40
2013,08,21,16,57,23.40
2013,08,21,16,58,23.40
2013,08,21,16,59,23.40
2013,08,21,17,00,23.40
2013,08,21,17,01,23.50
2013,08,21,17,02,23.50
2013,08,21,17,03,23.60
2013,08,21,17,04,23.70
2013,08,21,17,05,23.70
2013,08,21,17,06,23.80
2013,08,21,17,07,24.00
2013,08,21,17,08,24.00
2013,08,21,17,09,24.10
2013,08,21,17,10,24.20
2013,08,21,17,11,24.30
2013,08,21,17,12,24.40
2013,08,21,17,13,24.40
2013,08,21,17,14,24.50
2013,08,21,17,15,24.50
2013,08,21,17,16,24.50
2013,08,21,17,17,24.60
2013,08,21,17,18,24.60
2013,08,21,17,19,24.60